Weather History for Crookston, MN

Change the Weather History Date:

Monday, November 19, 2012

  Actual Average Record
Temperature  
Mean Temperature 33 °F -  
Max Temperature 42 °F 29 °F 46 °F (2007)
Min Temperature 24 °F 15 °F -9 °F (1996)
Degree Days  
Heating Degree Days 32    
Moisture  
Dew Point 32 °F    
Average Humidity 89    
Maximum Humidity 100    
Minimum Humidity 70    
Precipitation  
Precipitation 0.00 in - - ()
Sea Level Pressure  
Sea Level Pressure 30.03 in    
Wind  
Wind Speed 8 mph (WNW)    
Max Wind Speed 16 mph    
Max Gust Speed -    
Visibility 8 miles    
Events      
Averages and records for this station are not official NWS values.
T = Trace of Precipitation, MM = Missing Value Source: NWS Daily Summary

Daily Weather History Graph

Daily Weather History Graph

Search for Another Location

Airport:

Trip Planner

Search our weather history database for the weather conditions in past years. The results will help you decide how hot, cold, wet, or windy it might be!

Date:

Astronomy

Nov. 19, 2012 Rise Set
Actual Time 7:39 AM CST 4:44 PM CST
Civil Twilight 7:04 AM CST 5:18 PM CST
Nautical Twilight 6:26 AM CST 5:56 PM CST
Astronomical Twilight 5:50 AM CST 6:33 PM CST
Moon 12:32 PM CST (11/19) 11:25 PM CST (11/19)
Length of Visible Light 10h 13m
Length of Day
9h 05m
Waxing Crescent, 41% of the Moon is Illuminated
Nov 19
Waxing Crescent
Nov 20
First Quarter
Nov 28
Full
Dec 6
Last Quarter
Dec 13
New

Hourly Weather History & Observations

Time (CST) Temp. Windchill Dew Point Humidity Pressure Visibility Wind Dir Wind Speed Gust Speed Precip Events Conditions
12:15 AM 39.2 °F 35.9 °F 35.6 °F 87% 29.91 in 10.0 mi SSE 4.6 mph - N/A   Scattered Clouds
12:34 AM 39.2 °F 33.6 °F 35.6 °F 87% 29.90 in 10.0 mi South 8.1 mph - N/A   Scattered Clouds
12:55 AM 39.2 °F 34.2 °F 35.6 °F 87% 29.89 in 10.0 mi SSE 6.9 mph - N/A   Scattered Clouds
1:14 AM 39.2 °F 34.2 °F 35.6 °F 87% 29.89 in 10.0 mi South 6.9 mph - N/A   Scattered Clouds
1:34 AM 37.4 °F 32.1 °F 35.6 °F 93% 29.89 in 10.0 mi South 6.9 mph - N/A   Clear
1:55 AM 37.4 °F 31.4 °F 33.8 °F 87% 29.89 in 10.0 mi SSE 8.1 mph - N/A   Clear
2:14 AM 37.4 °F 29.8 °F 35.6 °F 93% 29.88 in 10.0 mi SSE 11.5 mph - N/A   Clear
2:34 AM 39.2 °F 33.0 °F 35.6 °F 87% 29.89 in 10.0 mi South 9.2 mph - N/A   Clear
2:55 AM 39.2 °F 32.5 °F 35.6 °F 87% 29.90 in 10.0 mi South 10.4 mph - N/A   Clear
3:14 AM 39.2 °F 32.5 °F 35.6 °F 87% 29.90 in 10.0 mi South 10.4 mph - N/A   Clear
3:34 AM 39.2 °F 32.5 °F 35.6 °F 87% 29.90 in 10.0 mi South 10.4 mph - N/A   Clear
3:55 AM 39.2 °F 33.0 °F 35.6 °F 87% 29.90 in 10.0 mi South 9.2 mph - N/A   Clear
4:14 AM 39.2 °F 32.5 °F 35.6 °F 87% 29.90 in 10.0 mi SSW 10.4 mph - N/A   Clear
4:34 AM 39.2 °F 33.0 °F 35.6 °F 87% 29.91 in 10.0 mi SSW 9.2 mph - N/A   Clear
4:55 AM 35.6 °F 29.2 °F 33.8 °F 93% 29.92 in 10.0 mi SW 8.1 mph - N/A   Clear
5:14 AM 35.6 °F 29.2 °F 33.8 °F 93% 29.93 in 10.0 mi SW 8.1 mph - N/A   Clear
5:34 AM 35.6 °F 29.9 °F 33.8 °F 93% 29.93 in 10.0 mi SSW 6.9 mph - N/A   Clear
5:55 AM 33.8 °F 28.6 °F 32.0 °F 93% 29.94 in 10.0 mi SW 5.8 mph - N/A   Clear
6:14 AM 33.8 °F 28.6 °F 32.0 °F 93% 29.93 in 7.0 mi SSW 5.8 mph - N/A   Clear
6:34 AM 33.8 °F 28.6 °F 32.0 °F 93% 29.93 in 7.0 mi SSW 5.8 mph - N/A   Clear
6:55 AM 32.0 °F 26.4 °F 30.2 °F 93% 29.94 in 7.0 mi WSW 5.8 mph - N/A   Clear
7:35 AM 32.0 °F 26.4 °F 30.2 °F 93% 29.95 in 5.0 mi SW 5.8 mph - N/A   Clear
7:55 AM 32.0 °F 28.7 °F 30.2 °F 93% 29.96 in 4.0 mi WSW 3.5 mph - N/A   Clear
8:14 AM 32.0 °F 27.5 °F 32.0 °F 100% 29.96 in 4.0 mi West 4.6 mph - N/A   Clear
8:34 AM 33.8 °F 28.6 °F 33.8 °F 100% 29.97 in 4.0 mi West 5.8 mph - N/A   Clear
8:55 AM 33.8 °F 29.6 °F 33.8 °F 100% 29.98 in 5.0 mi West 4.6 mph - N/A   Clear
9:14 AM 35.6 °F 29.9 °F 33.8 °F 93% 29.99 in 4.0 mi WNW 6.9 mph - N/A   Clear
9:35 AM 35.6 °F 30.7 °F 35.6 °F 100% 29.99 in 5.0 mi WNW 5.8 mph - N/A   Clear
9:54 AM 35.6 °F - 33.8 °F 93% 29.98 in 5.0 mi Calm Calm - N/A   Clear
10:14 AM 35.6 °F 30.7 °F 33.8 °F 93% 29.99 in 5.0 mi NW 5.8 mph - N/A   Clear
10:35 AM 37.4 °F 29.3 °F 33.8 °F 87% 30.00 in 10.0 mi NW 12.7 mph - N/A   Clear
10:54 AM 39.2 °F 33.0 °F 35.6 °F 87% 30.01 in 10.0 mi NW 9.2 mph - N/A   Clear
11:14 AM 39.2 °F 33.6 °F 35.6 °F 87% 30.01 in 10.0 mi NW 8.1 mph - N/A   Clear
11:35 AM 42.8 °F 36.2 °F 35.6 °F 76% 30.02 in 10.0 mi NW 12.7 mph - N/A   Clear
11:54 AM 42.8 °F 37.5 °F 35.6 °F 76% 30.03 in 10.0 mi NNW 9.2 mph - N/A   Clear
12:14 PM 42.8 °F 36.2 °F 35.6 °F 76% 30.04 in 10.0 mi NNW 12.7 mph - N/A   Clear
12:35 PM 42.8 °F 35.8 °F 35.6 °F 76% 30.04 in 10.0 mi NNW 13.8 mph - N/A   Clear
12:54 PM 42.8 °F 36.2 °F 35.6 °F 76% 30.04 in 10.0 mi NNW 12.7 mph - N/A   Clear
1:14 PM 42.8 °F 35.8 °F 35.6 °F 76% 30.05 in 10.0 mi North 13.8 mph - N/A   Clear
1:35 PM 42.8 °F 35.8 °F 33.8 °F 70% 30.06 in 10.0 mi NNW 13.8 mph - N/A   Clear
1:54 PM 42.8 °F 35.8 °F 33.8 °F 70% 30.06 in 10.0 mi NNW 13.8 mph - N/A   Clear
2:15 PM 41.0 °F 32.8 °F 33.8 °F 76% 30.07 in 10.0 mi North 16.1 mph - N/A   Clear
2:35 PM 39.2 °F 31.2 °F 33.8 °F 81% 30.08 in 10.0 mi NNW 13.8 mph - N/A   Clear
2:54 PM 39.2 °F 31.2 °F 33.8 °F 81% 30.08 in 10.0 mi NNW 13.8 mph - N/A   Clear
3:15 PM 41.0 °F 34.3 °F 33.8 °F 76% 30.09 in 10.0 mi NNW 11.5 mph - N/A   Clear
3:35 PM 39.2 °F 30.8 °F 33.8 °F 81% 30.09 in 10.0 mi North 15.0 mph - N/A   Clear
3:54 PM 39.2 °F 31.6 °F 32.0 °F 75% 30.10 in 10.0 mi NNW 12.7 mph - N/A   Clear
4:15 PM 37.4 °F 30.3 °F 32.0 °F 81% 30.11 in 10.0 mi NNW 10.4 mph - N/A   Clear
4:35 PM 35.6 °F 30.7 °F 30.2 °F 81% 30.11 in 10.0 mi NNW 5.8 mph - N/A   Clear
4:54 PM 32.0 °F 25.6 °F 30.2 °F 93% 30.10 in 7.0 mi North 6.9 mph - N/A   Clear
5:15 PM 30.2 °F 22.6 °F 28.4 °F 93% 30.11 in 7.0 mi NNW 8.1 mph - N/A   Clear
5:34 PM 30.2 °F 24.3 °F 28.4 °F 93% 30.11 in 7.0 mi NNW 5.8 mph - N/A   Clear
5:54 PM 30.2 °F 24.3 °F 28.4 °F 93% 30.12 in 7.0 mi NNW 5.8 mph - N/A   Clear
6:15 PM 30.2 °F 24.3 °F 28.4 °F 93% 30.13 in 7.0 mi NNW 5.8 mph - N/A   Clear
6:34 PM 28.4 °F 23.3 °F 28.4 °F 100% 30.14 in 7.0 mi NNW 4.6 mph - N/A   Clear
6:55 PM 30.2 °F 23.4 °F 28.4 °F 93% 30.14 in 7.0 mi NW 6.9 mph - N/A   Clear
7:15 PM 28.4 °F 24.6 °F 26.6 °F 93% 30.14 in 7.0 mi NW 3.5 mph - N/A   Clear
7:34 PM 28.4 °F 24.6 °F 28.4 °F 100% 30.15 in 5.0 mi NW 3.5 mph - N/A   Clear
7:55 PM 28.4 °F 23.3 °F 28.4 °F 100% 30.15 in 5.0 mi NW 4.6 mph - N/A   Clear
8:15 PM 28.4 °F 24.6 °F 28.4 °F 100% 30.15 in 5.0 mi NNW 3.5 mph - N/A   Clear
8:34 PM 26.6 °F 20.0 °F 26.6 °F 100% 30.15 in 5.0 mi NW 5.8 mph - N/A   Clear
9:14 PM 26.6 °F 18.2 °F 26.6 °F 100% 30.17 in 5.0 mi NW 8.1 mph - N/A   Clear
9:34 PM 26.6 °F - 26.6 °F 100% 30.16 in 5.0 mi Calm Calm - N/A   Clear
9:55 PM 26.6 °F 21.2 °F 26.6 °F 100% 30.16 in 4.0 mi NW 4.6 mph - N/A   Clear
10:14 PM 28.4 °F 24.6 °F 26.6 °F 93% 30.15 in 4.0 mi North 3.5 mph - N/A   Clear
10:34 PM 26.6 °F 22.6 °F 24.8 °F 93% 30.15 in 4.0 mi NNW 3.5 mph - N/A   Clear
10:55 PM 24.8 °F - 24.8 °F 100% 30.15 in 2.5 mi Calm Calm - N/A   Clear
11:14 PM 28.4 °F - 26.6 °F 93% 30.15 in 4.0 mi Calm Calm - N/A   Clear
11:34 PM 24.8 °F - 23.0 °F 93% 30.16 in 4.0 mi Calm Calm - N/A   Clear
11:55 PM 24.8 °F - 23.0 °F 93% 30.16 in 4.0 mi Calm Calm - N/A   Clear